Location: Kelowna
(49.8880°N, 119.4960°W)
Time: 23:05:33
(UTC-08:00)

TIGRISAT - Visible Passes

Search period start: 11 November 2024 00:00
Search period end: 21 November 2024 00:00
Orbit: 589 x 664 km, 97.7° (Epoch: 11 November)

Date Brightness Start Highest point End Pass type
(mag) Time Alt. Az. Time Alt. Az. Time Alt. Az.
11 Nov ? 17:10:13 10° N 17:14:19 45° WNW 17:18:19 10° SW visible
12 Nov ? 17:29:45 10° N 17:33:29 30° WNW 17:37:10 10° SW visible
13 Nov ? 17:49:25 10° NNW 17:52:36 21° WNW 17:55:44 10° WSW visible
14 Nov ? 18:09:18 10° NNW 18:11:38 15° WNW 18:13:56 10° W visible
15 Nov ? 16:50:57 10° N 16:55:11 68° WNW 16:59:20 10° SSW visible
16 Nov ? 17:10:18 10° N 17:14:20 44° WNW 17:18:18 10° SW visible
17 Nov ? 17:29:45 10° N 17:33:26 29° WNW 17:37:03 10° SW visible
18 Nov ? 17:49:20 10° NNW 17:52:27 20° WNW 17:55:32 10° WSW visible
19 Nov ? 18:09:08 10° NNW 18:11:24 14° WNW 18:13:38 10° W visible
20 Nov ? 16:50:40 10° N 16:54:51 68° WNW 16:58:59 10° SSW visible
